Starlink 32812

operational
NORAD ID: 63038 Int'l Des: 2025-034 Owner: SPXS Country: US Constellation: starlink
LEOCIRCULAR

About Starlink 32812

Description loading...

Live Position

Loading 3D Globe...

Upcoming Passes

Altitude History

Altitude vs Time

uPlot chart will show altitude changes over time

Two-Line Element Set

1 63038U 25034K 26103.10009288 .00007313 00000-0 25874-3 0 9997
2 63038 53.1597 98.3980 0001357 82.0981 278.0174 15.30205942 64351
Epoch: Apr 13, 2026 • Age: 6 hours

Current Status

Altitude 481.9 km
Velocity 7.62 km/s
Sub-Earth Point -21.94°S, 26.87°W
Launch Date Feb 18, 2025
Age 1.1 years
Type internet

Technical Details

Classification Payload
Mass 730.00 kg
Dry Mass 700.00 kg
Total Mass 730.00 kg
Length 0.30 m
Diameter 4.10 m
Span 29.00 m
Shape Box + pan
Manufacturer SPXS
Bus Type Starlink V2M
Phase Status In Orbit
Owner/State SPXS/US

Large Constellations

Loading constellations...